Overview Statistics Trail Chart Weather Telemetry Raw packets
 

This is the latest recevied weather packets stored in our database for station/object SQ3MKP-13. If no packets are shown the sender has not sent any weather packets the latest 10 day(s).

<< 1 2 3 4 >>
Time Temp. Humidity Pressure Rain* Wind** Luminosity Snow
1788612067 18.33° C 76% 1004.5 hPa - - 541 W/m² -
1788611765 17.78° C 75% 1004.6 hPa - - 519 W/m² -
1788611464 17.78° C 78% 1004.6 hPa - - 510 W/m² -
1788611163 17.22° C 76% 1004.6 hPa - - 512 W/m² -
1788610862 16.67° C 79% 1004.7 hPa - - 530 W/m² -
1788610561 16.11° C 84% 1004.7 hPa - - 569 W/m² -
1788610261 15.56° C 85% 1004.9 hPa - - 605 W/m² -
1788609960 15° C 88% 1004.9 hPa - - 200 W/m² -
1788609659 13.89° C 90% 1004.9 hPa - - 87 W/m² -
1788609358 13.89° C 90% 1004.9 hPa - - 87 W/m² -
1788609056 13.89° C 90% 1004.9 hPa - - 87 W/m² -
1788608756 13.89° C 90% 1005.1 hPa - - 87 W/m² -
1788608454 13.33° C 90% 1005.4 hPa - - 91 W/m² -
1788608154 13.33° C 89% 1005.3 hPa - - 73 W/m² -
1788607852 13.33° C 88% 1005.5 hPa - - 17 W/m² -
1788607552 13.33° C 88% 1005.5 hPa - - 16 W/m² -
1788607020 16.67° C 72% 1005.8 hPa - - 35 W/m² -
1788606719 18.33° C 63% 1005.1 hPa - - 208 W/m² -
1788606417 18.33° C 61% 1005 hPa - - 156 W/m² -
1788606116 18.33° C 61% 1004.8 hPa - - 224 W/m² -
1788605816 18.33° C 60% 1004.9 hPa - - 234 W/m² -
1788605515 18.89° C 60% 1004.8 hPa - - 93 W/m² -
1788605214 18.33° C 60% 1004.7 hPa - - 291 W/m² -
1788604912 18.33° C 61% 1004.8 hPa - - 244 W/m² -
1788604611 18.33° C 60% 1004.7 hPa - - 136 W/m² -

* Rain since midnight (hover to see other rain measurements)
** Current wind speed in m/s (hover to see current wind gust speed)